Terug naar catalogus

STARLINK-38029

ActiefCommunicatieSSO
NORAD 69752·PAYLOAD·🇺🇸 United States

Gelanceerd Jul 2, 2026 vanaf Vandenberg Space Force Base

Loading…

Volgende Passages (komende 24 uur)

TLE

VersSource: CelesTrak SupGP

Epoch: Sep 15, 2026, 04:07 UTC

1 69752C 26150P   26258.17201389 -.00082539  00000+0 -25632-2 0  2583
2 69752  97.2850  97.2318 0001801  91.9536 250.0643 15.33468184    19

Volg STARLINK-38029 in realtime met AllMySat

Download on the App Store